Find OneWeb SL0182

NORAD ID: 48228 Int'l Des: 2021-031 Owner: ONEWEBN Country: UK Constellation: oneweb operational
LEOCIRCULARPOLARONEWEB_TYPE

实时位置

正在加载3D地球...

关于 OneWeb SL0182

正在加载描述...

即将过境

Passes for default location (London). Set your location on the main map for personalized predictions.

高度历史

Loading altitude history...

两行轨道根数

1 48228U 21031U 26125.02337306 .00000059 00000-0 12374-3 0 9995
2 48228 87.8928 298.3189 0001819 100.2423 259.8912 13.14503514242763
Epoch: May 5, 2026 • Age: 14 hours

当前状态

高度 1230.1 km
速度 7.24 km/s
星下点 -59.95°S, 39.88°E
发射日期 Apr 25, 2021
运行时间 5 years
类型 internet

技术详情

分类 Payload
质量 148.00 kg
干质量 140.00 kg
总质量 148.00 kg
长度 1.30 m
直径 1.00 m
跨度 5.00 m
形状 Trapezoid+2 pan
制造商 ONEWUS
平台类型 ARROW
阶段状态 In Orbit
所有者/国家 ONEWEBN/UK

Most Searched